Regional Weather Roundup
Issued by NWS

Home | Current Version | Previous Version | Graphics & Text | Print | Product List | Glossary On
Versions: 1 2 3 4 5 6 7 8 9 10 11 12 13 14 15 16 17 18 19 20 21 22 23 24 25 26 27 28 29 30 31 32 33 34 35 36 37 38 39 40 41 42 43 44 45 46 47 48 49 50
000
ASUS43 KIND 252359
RWRIN

WEATHER ROUNDUP FOR INDIANA
NATIONAL WEATHER SERVICE INDIANAPOLIS IN
800 PM EDT FRI JUL 25 2014

NOTE: "FAIR" INDICATES FEW OR NO CLOUDS BELOW 12,000 FEET WITH NO
SIGNIFICANT WEATHER AND/OR OBSTRUCTIONS TO VISIBILITY.

* - STATION DOES NOT REPORT WEATHER SUCH AS PRECIPITATION OR FOG.

+ - STATION NOT QUALITY CONTROLLED BY THE NATIONAL WEATHER SERVICE.
    USE DATA WITH CAUTION...ESPECIALLY DEWPOINT AND RELATIVE
    HUMIDITY OBSERVATIONS.

INZ001>003-010>013-019-020-260100-
NORTHWEST INDIANA

CITY           SKY/WX    TMP DP  RH WIND       PRES   REMARKS
GARY /AIRPORT/ PTSUNNY   75  61  60 S8        29.94F
VALPARAISO     CLOUDY    71  58  63 S8        29.96F
6HR MIN TEMP:  71; 6HR MAX TEMP:  74;


$$

LMZ046-743>745-260100-
SOUTHERN LAKE MICHIGAN

STATION/POSITION TIME  TEMP WIND        PRES
                       AIR  DIR/SP/G
                 (UTC) (F)  (DEG/KT/KT) (MB)
MICHIGAN CITY    2300   71  190/  9/ 10   N/A

$$

INZ004-005-014>016-021>024-260100-
NORTH CENTRAL INDIANA

CITY           SKY/WX    TMP DP  RH WIND       PRES   REMARKS
ELKHART        CLOUDY    72  55  56 S5        29.97F
GOSHEN         CLOUDY    72  60  66 S6        29.97S
6HR MIN TEMP:  70; 6HR MAX TEMP:  77; 6HR PCP: TRACE;

SOUTH BEND     PTSUNNY   72  58  61 SW7       29.97F
6HR MIN TEMP:  72; 6HR MAX TEMP:  76; 6HR PCP: TRACE;

WARSAW +       CLOUDY    70  55  60 CALM      29.99R

$$

INZ006>009-017-018-025>027-260100-
NORTHEAST INDIANA

CITY           SKY/WX    TMP DP  RH WIND       PRES   REMARKS
ANGOLA *+      CLOUDY    70  57  64 CALM      29.98S
FORT WAYNE     CLOUDY    71  56  58 S6        29.99S
6HR MIN TEMP:  71; 6HR MAX TEMP:  77;


$$

INZ028-029-035-036-043>045-051>053-260100-
WEST CENTRAL INDIANA

CITY           SKY/WX    TMP DP  RH WIND       PRES   REMARKS
GREENCASTLE +  SUNNY     70  59  68 CALM      29.98R
LAFAYETTE      MOSUNNY   72  58  61 CALM      29.96F
6HR MIN TEMP:  70; 6HR MAX TEMP:  74; 6HR PCP: TRACE;

TERRE HAUTE    MOSUNNY   72  60  66 SE6       29.95S
6HR MIN TEMP:  70; 6HR MAX TEMP:  74; 6HR PCP: TRACE;


$$

INZ030>032-037>040-046>048-054>057-064-065-260100-
CENTRAL INDIANA

CITY           SKY/WX    TMP DP  RH WIND       PRES   REMARKS
INDIANAPOLIS   PTSUNNY   72  58  61 S6        29.96S
6HR MIN TEMP:  71; 6HR MAX TEMP:  74; 6HR PCP: TRACE;

-EAGLE CREEK   SUNNY     73  57  57 S3        29.97R
6HR MIN TEMP:  71; 6HR MAX TEMP:  74; 6HR PCP: TRACE;

KOKOMO *+      CLOUDY    72  61  68 CALM      29.99S
MT COMFORT *+  MOSUNNY   72  63  73 S3        29.98R
SHELBYVILLE    MOSUNNY   74  59  59 SE6       29.96F
6HR MIN TEMP:  73; 6HR MAX TEMP:  77;


$$

INZ033-034-041-042-049-050-058-059-260100-
EAST CENTRAL INDIANA

CITY           SKY/WX    TMP DP  RH WIND       PRES   REMARKS
MUNCIE         CLOUDY    71  55  56 SW5       29.99R
6HR MIN TEMP:  71; 6HR MAX TEMP:  76; 6HR PCP: TRACE;


$$

INZ060-061-067>069-081>083-085>088-260100-
SOUTHWEST INDIANA

CITY           SKY/WX    TMP DP  RH WIND       PRES   REMARKS
EVANSVILLE     CLOUDY    76  59  55 S7        29.92R
6HR MIN TEMP:  75; 6HR MAX TEMP:  80;

HUNTINGBURG *+ PTSUNNY   75  57  53 S6        29.94R
6HR MIN TEMP:  73; 6HR MAX TEMP:  79;


$$

INZ062-063-066-070>080-084-089>092-260100-
SOUTH CENTRAL AND SOUTHEAST INDIANA

CITY           SKY/WX    TMP DP  RH WIND       PRES   REMARKS
BLOOMINGTON    MOSUNNY   73  59  61 E3        29.96R
6HR MIN TEMP:  71; 6HR MAX TEMP:  76;


$$




USA.gov is the U.S. government's official web portal to all federal, state and local government web resources and services.